VDSR

Details ICAO VDSR (REP)
Name Siem Reap
Region Cambodia
Timezone Asia/Phnom_Penh (UTC+7.0)
Plans Departing 71
Arriving 87
Stats Elevation 60 ft / 18 m (AMSL)
Location 13.410667° 103.812832°
Runways 1
Magnetic Variation 0.623° W
Sunrise 2018-05-20 22:39:03 UTC / 2018-05-21 05:39:03 Local
Sunset 2018-05-21 11:26:26 UTC / 2018-05-21 18:26:26 Local
Advertisement - Login to hide

Runways

ID Width Length Bearing (true) Bearing (mag) Surface Threshold Offset Overrun Length
05 148 ft / 45 m 8,384 ft / 2,555 m 47.81° 48.43° Concrete 450 ft / 137 m 0 ft / 0 m
23 148 ft / 45 m 8,384 ft / 2,555 m 227.82° 228.44° Concrete 450 ft / 137 m 0 ft / 0 m

Map

Weather


0- 5 10 15 20 25 30 35+ Temperature / ° C

Clouds and Precipitation
Forecast for 2018-05-21 12:00 UTC. Updated 2 hours ago

Ground ~20,000 ft ~40,000 ft Winds

METAR

VDSR 211330Z VRB03KT 8000 SCT015 FEW017CB SCT040 27/25 Q1008 CB

TAF

TAF VDSR 211100Z 2112/2206 18007KT 9999 SCT017 TEMPO 2112/2116 5000 TSRA SCT015 FEW017CB

Frequencies

Recorded 129.95 MHz ATIS
Approach 124.30 MHz APP
Tower 118.50 MHz TWR
Warning: Do not use this data for real-world aviation or navigation. No guarantee of current accuracy is given.